Location: Unspecified
(53.8140°N, 3.0310°W)
Time: 23:08:54
(UTC+00:00)

Daily predictions for brighter satellites

Satellite Brightness Start Highest point End
(mag) Time Altitude Azimuth Time Altitude Azimuth Time Altitude Azimuth
Meteor 1-12 Rocket 4.4 21:33:29 10° NNW 21:39:16 88° ENE 21:45:09 10° SSE
Lacrosse 4 Rocket 2.6 21:36:16 10° NNW 21:40:13 37° NE 21:44:07 10° ESE
Cosmos 2184 Rocket 4.5 21:35:56 10° N 21:42:05 51° ENE 21:48:15 10° SSE
USA 186 3.0 21:41:12 10° SSW 21:42:40 18° W 21:44:07 10° NW
Cosmos 2278 Rocket 2.2 21:37:34 10° SSW 21:43:14 86° ESE 21:48:57 10° NNE
Cosmos 2154 Rocket 4.5 21:38:37 10° N 21:44:40 49° ENE 21:50:42 10° SE
USA 308 1.2 21:43:10 10° SW 21:44:44 46° SSE 21:47:42 10° E
BREEZE-M DEB (TANK) 3.9 21:32:39 10° W 21:45:37 80° S 21:49:07 10° E
Cosmos 1953 4.4 21:45:51 10° NW 21:48:34 20° W 21:51:14 10° SW
Iridium 4 Rocket 4.1 21:45:01 10° SSW 21:49:41 51° W 21:54:01 10° N
IRS-1C Rocket 4.3 21:45:05 10° S 21:50:20 74° WSW 21:55:37 10° NNW
ARIANE 6 FM1 Upper Stage 3.4 21:50:45 10° S 21:54:29 32° SE 21:58:11 10° ENE
Cosmos 2344 3.5 21:47:31 10° SW 21:55:06 90° NW 22:02:28 10° NE
Okean-O 4.4 21:51:37 10° SSW 21:55:20 27° W 21:59:05 10° NW
USA 245 3.7 21:53:54 10° SSW 21:56:07 28° W 21:58:12 10° NW
Cosmos 1656 Rocket 4.1 21:50:59 10° S 21:56:08 43° ESE 22:01:23 10° NE
Cosmos 1441 Rocket 3.1 21:54:11 10° S 21:57:17 47° E 22:00:25 10° NNE
Cosmos 1048 Rocket 4.1 21:52:37 10° S 21:57:46 62° ESE 22:03:02 10° NNE
NOSS 2-1 (E) 2.8 21:54:11 10° SW 21:57:48 87° NW 22:00:54 10° NE
SL-8 R/B 4.1 21:55:56 10° WSW 22:00:22 41° S 22:04:50 10° E
SWAS 4.3 21:57:12 10° SSW 22:01:16 86° ESE 22:05:20 10° NE
Timation 2 Rocket 4.1 21:55:43 10° SSW 22:02:06 76° ESE 22:08:49 10° NE
USA 290 3.4 21:59:21 10° NNW 22:02:15 33° NE 22:05:09 10° ESE
USA 215 3.6 21:55:49 10° E 22:02:19 72° N 22:08:50 10° WNW
Cosmos 1680 Rocket 4.1 21:58:24 10° SW 22:03:32 60° WNW 22:08:43 10° NNE
SPOT 3 Rocket 4.4 21:58:42 10° S 22:03:38 46° W 22:08:38 10° NNW
USA 59 Rocket 0.2 22:00:33 10° WSW 22:03:45 50° NW 22:06:37 10° NE
Cosmos 1295 Rocket 4.5 22:01:31 10° N 22:07:38 84° E 22:13:45 10° SSE
Okean 2 3.7 22:04:35 10° SSW 22:08:24 62° WNW 22:12:16 10° N
Cosmos 1933 Rocket 3.7 22:06:59 10° NNW 22:11:19 76° W 22:15:39 10° S
NOSS 3-1 (C) 3.7 22:07:11 10° S 22:11:21 32° ESE 22:16:14 10° ENE
CZ-4B R/B 4.0 22:08:04 10° SSW 22:11:50 38° W 22:15:36 10° NNW
USA 276 2.2 22:12:13 10° WSW 22:14:18 31° S 22:16:38 10° ESE
NOSS 2-1 (D) 3.8 22:12:14 10° WSW 22:15:30 48° NW 22:18:23 10° NE
Cosmos 1302 Rocket 4.1 22:11:38 10° NNW 22:16:57 83° ENE 22:21:57 12° SSE
Okean 3 3.3 22:13:23 10° S 22:17:24 85° E 22:21:28 10° NNE
Cosmos 2369 Rocket 3.1 22:12:46 10° SSE 22:17:33 30° ESE 22:22:23 10° NE
Okean O Rocket 4.0 22:14:40 10° SW 22:17:41 18° W 22:20:44 10° NW
CZ-4B R/B 4.4 22:16:43 10° S 22:21:44 47° W 22:26:49 10° NNW
Ariane Rocket 4.0 22:18:08 10° SSW 22:22:55 41° W 22:27:43 10° NNW
USA 81 4.2 22:22:01 10° N 22:27:18 76° W 22:32:33 10° S
Helios 1A 3.6 22:26:25 10° NNE 22:30:06 36° E 22:33:12 13° SSE
Lacrosse 5 rocket 1.8 22:26:44 10° WNW 22:30:12 51° N 22:33:38 10° E
Okean 1-7 3.9 22:29:25 13° SSE 22:32:42 34° E 22:36:32 10° NNE
COSMOS 2406 3.7 22:27:50 10° NW 22:33:22 52° WSW 22:38:29 12° S
Cosmos 2074 Rocket 4.1 22:28:41 10° NNW 22:34:55 76° W 22:40:58 11° S
Cosmos 1992 Rocket 4.1 22:34:28 10° NNW 22:39:42 77° ENE 22:44:18 13° SSE
Cosmos 614 Rocket 3.9 22:35:51 10° SSW 22:40:55 79° ESE 22:45:59 10° NNE
CENTAUR R/B 4.0 22:34:18 10° NW 22:41:27 49° NNE 22:50:05 10° E
Cosmos 1356 Rocket 4.5 22:39:19 10° N 22:43:03 35° ENE 22:46:27 12° SE
Cosmos 1869 Rocket 4.2 22:39:28 10° NNW 22:43:40 50° W 22:47:47 11° S
SL-4 R/B 1.6 22:41:36 10° WSW 22:44:48 46° SSE 22:47:53 10° E
CZ-2C R/B 3.6 22:42:49 10° SSW 22:45:10 26° W 22:47:32 10° NW
Spot 4 4.5 22:41:26 12° SE 22:45:43 49° ENE 22:50:22 10° N
Cosmos 1328 3.4 22:45:24 13° S 22:48:28 78° E 22:52:00 10° NNE
Cosmos 1733 Rocket 3.0 22:46:18 10° N 22:50:39 85° E 22:54:09 15° SSE
Helios 1B rocket 2.2 22:52:44 16° SSE 22:55:20 60° ENE 22:58:46 10° N
Nadezhda 1 Rocket 4.0 22:51:48 11° S 22:57:41 78° E 23:04:01 10° NNE
COSMOS 2455 3.5 22:53:59 13° S 22:58:50 37° ESE 23:04:18 10° NE
Cosmos 972 Rocket 4.4 22:55:22 10° NNW 23:00:40 55° WSW 23:04:47 14° S
NOSS 2-2 (C) 3.7 22:57:41 10° NW 23:00:59 55° NE 23:05:13 10° ESE
Cosmos 1707 Rocket 3.8 22:58:14 15° S 23:01:42 57° E 23:06:04 10° NNE
ATLAS 5 CENTAUR R/B 0.8 23:00:36 10° SW 23:03:31 73° NW 23:06:46 10° NE
USA 308 1.9 23:04:01 10° W 23:06:29 85° N 23:10:21 10° E
BREEZE-M DEB (TANK) 3.9 22:51:37 10° W 23:07:45 61° SSW 23:12:26 10° ESE
Cosmos 2218 Rocket 4.3 23:03:41 10° N 23:09:57 61° ENE 23:15:14 14° SSE
Cosmos 1869 3.6 23:07:50 10° N 23:11:12 45° ENE 23:13:37 17° SE
ARIANE 5 R/B 2.7 23:09:54 16° SSE 23:13:21 77° ENE 23:17:45 10° NNW
Cosmos 1862 Rocket 3.5 23:10:36 15° S 23:14:04 80° E 23:18:25 10° NNE
Cosmos 1943 Rocket 4.4 23:10:56 10° W 23:15:41 27° NW 23:20:25 10° NNE
SL-12 R/B(2) 4.4 23:07:41 10° SW 23:15:47 77° SE 23:25:52 10° NE
Cosmos 1818 3.7 23:10:35 10° SSW 23:15:52 56° SE 23:21:13 10° NE
Lacrosse 4 Rocket 2.1 23:14:04 10° NW 23:18:03 42° WSW 23:20:48 18° S
Cosmos 2082 Rocket 4.4 23:16:40 10° WNW 23:19:05 13° W 23:21:30 10° WSW
CZ-2C R/B 3.4 23:19:03 11° SE 23:23:52 44° ENE 23:28:57 10° N
Cosmos 2263 4.3 23:19:45 12° SSW 23:25:01 66° ESE 23:30:43 10° NE
ACS3 Solar Sail 3.1 23:20:48 10° NE 23:25:21 24° E 23:29:37 11° SE
SL-8 Rocket 4.0 23:20:15 10° N 23:26:27 88° E 23:31:29 16° S
Cosmos 2227 Rocket 4.5 23:22:46 10° NNW 23:27:09 22° NNE 23:31:32 10° E
Cosmos 2278 Rocket 4.3 23:23:10 10° W 23:28:00 28° NW 23:32:53 10° NNE
Cosmos 1315 Rocket 3.0 23:25:30 10° NNW 23:29:14 56° W 23:31:49 18° S
ALOS 2 2.6 23:28:20 18° SSE 23:31:35 85° WSW 23:36:01 10° NNW
Cosmos 2228 Rocket 3.1 23:29:34 17° S 23:32:53 79° E 23:37:21 10° NNE
CSL-04 DEB 4.1 23:30:53 20° S 23:33:17 76° WSW 23:36:55 10° NNW
ARIANE 6 FM1 Upper Stage 3.3 23:29:12 10° WSW 23:33:19 58° NNW 23:37:21 10° NE
BREEZE-M R/B 4.4 23:29:54 10° W 23:35:06 61° S 23:45:51 10° ESE
USA 290 4.0 23:33:42 10° NW 23:36:08 21° WSW 23:37:46 15° SW
Cosmos 1908 Rocket 3.6 23:32:32 10° N 23:36:59 79° ENE 23:40:09 19° SSE
Meteor 1-24 Rocket 3.9 23:32:28 14° S 23:37:41 88° ESE 23:43:42 10° NNE
SJ 16-02 3.4 23:37:24 10° SE 23:39:40 14° E 23:41:58 10° ENE
Meteor 2-15 Rocket 4.5 23:33:54 10° N 23:40:03 87° E 23:44:54 17° SSE
SL-8 R/B 4.1 23:37:44 10° W 23:42:10 40° S 23:46:36 10° ESE
USA 215 3.2 23:38:53 10° SE 23:45:24 72° SSW 23:51:58 10° WNW
USA 276 3.5 23:44:40 10° WSW 23:45:44 17° SW 23:45:44 17° SW
USA 59 Rocket 2.5 23:50:57 10° NW 23:52:52 16° N 23:54:47 10° NNE
Cosmos 921 Rocket 4.0 23:52:16 18° SSE 23:54:38 31° ESE 23:58:19 10° NE
